TimeEST,TemperatureF,Dew PointF,Humidity,Sea Level PressureIn,VisibilityMPH,Wind Direction,Wind SpeedMPH,Gust SpeedMPH,PrecipitationIn,Events,Conditions,WindDirDegrees,DateUTC
12:15 AM,45.9,44.8,96,29.61,10.0,WSW,6.9,-,N/A,,Scattered Clouds,240,2013-02-27 05:15:00
12:35 AM,45.0,43.9,96,29.61,10.0,WSW,5.8,-,N/A,,Scattered Clouds,250,2013-02-27 05:35:00
12:55 AM,44.1,43.0,96,29.61,10.0,WSW,3.5,-,N/A,,Mostly Cloudy,250,2013-02-27 05:55:00
1:15 AM,43.7,42.3,95,29.61,10.0,SW,6.9,-,N/A,,Overcast,230,2013-02-27 06:15:00
1:35 AM,43.0,41.7,95,29.61,10.0,WSW,4.6,-,N/A,,Overcast,250,2013-02-27 06:35:00
1:55 AM,42.4,41.2,95,29.61,10.0,West,8.1,-,N/A,,Overcast,260,2013-02-27 06:55:00
2:15 AM,42.4,41.2,95,29.62,5.0,West,4.6,-,N/A,,Overcast,260,2013-02-27 07:15:00
2:35 AM,42.4,41.2,95,29.62,5.0,WSW,8.1,-,N/A,,Overcast,240,2013-02-27 07:35:00
2:55 AM,41.9,40.6,95,29.62,10.0,WSW,8.1,-,N/A,,Overcast,240,2013-02-27 07:55:00
3:15 AM,41.9,40.5,95,29.61,10.0,WSW,6.9,-,N/A,,Overcast,250,2013-02-27 08:15:00
3:35 AM,41.9,40.5,95,29.61,10.0,WSW,5.8,-,N/A,,Overcast,240,2013-02-27 08:35:00
3:55 AM,41.9,40.5,95,29.61,10.0,SW,6.9,-,N/A,,Overcast,220,2013-02-27 08:55:00
4:15 AM,41.7,40.1,94,29.62,10.0,WSW,8.1,-,N/A,,Overcast,250,2013-02-27 09:15:00
4:35 AM,41.7,40.3,95,29.64,10.0,WSW,10.4,16.1,N/A,,Overcast,240,2013-02-27 09:35:00
4:55 AM,41.9,40.1,93,29.63,7.0,SW,8.1,18.4,N/A,,Overcast,230,2013-02-27 09:55:00
5:15 AM,41.9,40.1,93,29.64,7.0,WSW,8.1,-,N/A,,Overcast,240,2013-02-27 10:15:00
5:35 AM,41.9,40.1,93,29.64,10.0,WSW,8.1,16.1,N/A,,Overcast,240,2013-02-27 10:35:00
5:55 AM,41.7,39.7,93,29.65,10.0,WSW,9.2,-,N/A,,Overcast,240,2013-02-27 10:55:00
6:15 AM,41.5,39.2,91,29.66,10.0,SW,11.5,18.4,N/A,,Overcast,230,2013-02-27 11:15:00
6:35 AM,41.0,38.7,91,29.67,10.0,WSW,9.2,-,N/A,,Overcast,240,2013-02-27 11:35:00
6:55 AM,41.0,38.7,91,29.68,10.0,WSW,8.1,-,N/A,,Overcast,250,2013-02-27 11:55:00
7:15 AM,40.5,38.3,92,29.69,10.0,WSW,6.9,-,N/A,,Mostly Cloudy,250,2013-02-27 12:15:00
7:35 AM,41.0,38.7,91,29.70,10.0,SW,6.9,-,N/A,,Mostly Cloudy,230,2013-02-27 12:35:00
7:55 AM,41.9,39.2,90,29.71,10.0,SW,6.9,-,N/A,,Mostly Cloudy,230,2013-02-27 12:55:00
8:15 AM,42.8,39.4,88,29.72,10.0,SW,8.1,-,N/A,,Scattered Clouds,230,2013-02-27 13:15:00
8:35 AM,43.7,39.4,85,29.73,10.0,WSW,6.9,-,N/A,,Clear,240,2013-02-27 13:35:00
8:55 AM,45.0,39.6,81,29.74,10.0,WSW,9.2,-,N/A,,Clear,240,2013-02-27 13:55:00
9:15 AM,45.9,39.2,78,29.75,10.0,WSW,8.1,-,N/A,,Clear,250,2013-02-27 14:15:00
9:35 AM,46.8,39.0,74,29.75,10.0,WSW,8.1,-,N/A,,Clear,240,2013-02-27 14:35:00
9:55 AM,48.0,39.6,73,29.75,10.0,SW,10.4,-,N/A,,Clear,230,2013-02-27 14:55:00
10:15 AM,49.3,37.8,65,29.75,10.0,WSW,11.5,18.4,N/A,,Clear,250,2013-02-27 15:15:00
10:35 AM,50.0,36.5,60,29.75,10.0,West,10.4,-,N/A,,Clear,270,2013-02-27 15:35:00
10:55 AM,50.7,35.1,55,29.75,10.0,West,10.4,17.3,N/A,,Clear,280,2013-02-27 15:55:00
11:15 AM,52.0,34.9,52,29.76,10.0,West,6.9,-,N/A,,Clear,280,2013-02-27 16:15:00
11:35 AM,52.5,34.0,49,29.76,10.0,West,6.9,16.1,N/A,,Clear,270,2013-02-27 16:35:00
11:55 AM,53.6,34.9,49,29.76,10.0,WSW,11.5,-,N/A,,Scattered Clouds,240,2013-02-27 16:55:00
12:15 PM,53.8,34.2,47,29.75,10.0,West,9.2,-,N/A,,Scattered Clouds,270,2013-02-27 17:15:00
12:35 PM,54.3,33.1,45,29.74,10.0,West,8.1,-,N/A,,Clear,260,2013-02-27 17:35:00
12:55 PM,55.0,33.6,44,29.74,10.0,SW,10.4,17.3,N/A,,Clear,230,2013-02-27 17:55:00
1:15 PM,55.4,33.3,43,29.73,10.0,WSW,10.4,-,N/A,,Clear,240,2013-02-27 18:15:00
1:55 PM,56.5,32.0,39,29.71,10.0,WSW,9.2,-,N/A,,Clear,250,2013-02-27 18:55:00
2:15 PM,56.8,31.8,39,29.71,10.0,West,9.2,-,N/A,,Clear,280,2013-02-27 19:15:00
2:35 PM,56.7,30.9,38,29.72,10.0,WSW,9.2,17.3,N/A,,Clear,240,2013-02-27 19:35:00
2:55 PM,57.4,31.8,38,29.71,10.0,SW,9.2,16.1,N/A,,Clear,220,2013-02-27 19:55:00
3:15 PM,57.2,31.3,37,29.71,10.0,WSW,5.8,-,N/A,,Clear,250,2013-02-27 20:15:00
3:35 PM,57.9,32.4,38,29.71,10.0,West,10.4,-,N/A,,Clear,260,2013-02-27 20:35:00
3:55 PM,57.6,31.8,38,29.70,10.0,SW,9.2,-,N/A,,Clear,230,2013-02-27 20:55:00
4:15 PM,57.4,31.1,37,29.70,10.0,West,9.2,-,N/A,,Clear,260,2013-02-27 21:15:00
4:35 PM,57.2,31.1,37,29.70,10.0,WSW,6.9,-,N/A,,Clear,250,2013-02-27 21:35:00
5:15 PM,56.1,31.8,40,29.71,10.0,SW,8.1,-,N/A,,Clear,230,2013-02-27 22:15:00
5:35 PM,55.4,32.0,41,29.71,10.0,SW,6.9,-,N/A,,Clear,230,2013-02-27 22:35:00
5:55 PM,53.6,32.9,45,29.71,10.0,WSW,4.6,-,N/A,,Clear,240,2013-02-27 22:55:00
6:15 PM,52.9,32.9,47,29.72,10.0,SW,3.5,-,N/A,,Clear,230,2013-02-27 23:15:00
6:35 PM,50.9,34.2,53,29.71,10.0,South,3.5,-,N/A,,Clear,190,2013-02-27 23:35:00
6:55 PM,50.7,34.0,53,29.72,10.0,SW,4.6,-,N/A,,Clear,230,2013-02-27 23:55:00
7:15 PM,46.0,36.3,69,29.72,10.0,SSW,3.5,-,N/A,,Clear,210,2013-02-28 00:15:00
7:35 PM,49.5,35.1,58,29.72,10.0,WSW,5.8,-,N/A,,Clear,240,2013-02-28 00:35:00
7:55 PM,46.6,35.8,66,29.71,10.0,SSW,6.9,-,N/A,,Clear,210,2013-02-28 00:55:00
8:15 PM,45.9,35.6,67,29.71,10.0,SSW,5.8,-,N/A,,Clear,200,2013-02-28 01:15:00
8:35 PM,45.9,36.1,69,29.71,10.0,SSW,6.9,-,N/A,,Clear,200,2013-02-28 01:35:00
8:55 PM,45.9,36.5,70,29.71,10.0,SSW,6.9,-,N/A,,Clear,210,2013-02-28 01:55:00
9:15 PM,45.3,36.5,71,29.71,10.0,SW,5.8,-,N/A,,Clear,220,2013-02-28 02:15:00
9:35 PM,45.0,36.1,71,29.72,10.0,SW,4.6,-,N/A,,Clear,220,2013-02-28 02:35:00
9:55 PM,44.6,36.0,72,29.71,10.0,SW,5.8,-,N/A,,Clear,220,2013-02-28 02:55:00
10:15 PM,44.6,36.7,74,29.72,10.0,SW,8.1,-,N/A,,Clear,230,2013-02-28 03:15:00
10:35 PM,46.2,36.7,69,29.71,10.0,SW,6.9,-,N/A,,Clear,230,2013-02-28 03:35:00
11:15 PM,46.6,36.5,68,29.70,10.0,SW,6.9,-,N/A,,Scattered Clouds,230,2013-02-28 04:15:00
11:35 PM,47.5,36.5,66,29.70,10.0,West,5.8,-,N/A,,Overcast,280,2013-02-28 04:35:00
11:55 PM,47.3,35.8,64,29.71,10.0,NW,6.9,-,N/A,,Overcast,310,2013-02-28 04:55:00